Altus AFB, OK

10:05 PM CDT on April 27, 2017 (GMT -0500)
Altus Air Force Base

Weather History for KLTS - January, 2014

Change the Weather History Date:

Monday, January 27, 2014

  Actual Average Record
Temperature  
Mean Temperature 29 °F -  
Max Temperature 41 °F 50 °F 77 °F (2015)
Min Temperature 17 °F 27 °F 15 °F (2004)
Degree Days  
Heating Degree Days 36    
Moisture  
Dew Point -3 °F    
Average Humidity 30    
Maximum Humidity 61    
Minimum Humidity 18    
Precipitation  
Precipitation 0.01 in - - ()
Sea Level Pressure  
Sea Level Pressure 30.33 in    
Wind  
Wind Speed 25 mph (NNE)    
Max Wind Speed 36 mph    
Max Gust Speed 45 mph    
Visibility 10 miles    
Events      
Averages and records for this station are not official NWS values.
T = Trace of Precipitation, MM = Missing Value Source: NWS Daily Summary

Daily Weather History Graph

Daily Weather History Graph

Search for Another Location

Airport or City:

Trip Planner

Search our weather history database for the weather conditions in past years. The results will help you decide how hot, cold, wet, or windy it might be!

Date:

Astronomy

Jan. 27, 2014 Rise Set
Actual Time 7:38 AM CST 6:01 PM CST
Civil Twilight 7:11 AM CST 6:28 PM CST
Nautical Twilight 6:41 AM CST 6:58 PM CST
Astronomical Twilight 6:11 AM CST 7:28 PM CST
Moon 4:19 AM CST (1/27) 2:51 PM CST (1/27)
Length of Visible Light 11h 16m
Length of Day
10h 22m
Waning Crescent, 14% of the Moon is Illuminated
Jan 27
Waning Crescent
Jan 30
New
Feb 6
First Quarter
Feb 14
Full
Feb 22
Last Quarter

Hourly Weather History & Observations

Time (CST) Temp. Windchill Dew Point Humidity Pressure Visibility Wind Dir Wind Speed Gust Speed Precip Events Conditions
12:08 AM 41.0 °F 29.0 °F 28.4 °F 61% 29.99 in 8.0 mi NNE 35.7 mph 41.4 mph N/A   Partly Cloudy
12:23 AM 39.2 °F 27.2 °F 26.6 °F 61% 29.99 in 10.0 mi NNE 31.1 mph 44.9 mph N/A   Partly Cloudy
12:58 AM 37.0 °F 24.7 °F 22.6 °F 56% 30.02 in 10.0 mi NNE 28.8 mph 42.6 mph 0.01 in   Clear
1:58 AM 34.7 °F 22.8 °F 18.0 °F 51% 30.10 in 10.0 mi NNE 23.0 mph 42.6 mph N/A   Clear
2:58 AM 31.6 °F 18.1 °F 10.8 °F 42% 30.14 in 10.0 mi NNE 25.3 mph 43.7 mph N/A   Clear
3:58 AM 28.4 °F 13.5 °F -1.1 °F 28% 30.20 in 10.0 mi North 26.5 mph 34.5 mph N/A   Clear
4:58 AM 26.4 °F 10.9 °F -6.3 °F 24% 30.24 in 10.0 mi North 26.5 mph 44.9 mph N/A   Clear
5:58 AM 24.3 °F 8.3 °F -9.4 °F 23% 30.30 in 10.0 mi North 25.3 mph 33.4 mph N/A   Clear
6:58 AM 22.5 °F 6.9 °F -10.3 °F 23% 30.35 in 10.0 mi North 21.9 mph 28.8 mph N/A   Clear
7:58 AM 21.4 °F 5.1 °F -11.0 °F 24% 30.40 in 10.0 mi NNE 23.0 mph 29.9 mph N/A   Partly Cloudy
8:58 AM 22.3 °F 5.6 °F -11.2 °F 22% 30.42 in 10.0 mi North 25.3 mph 32.2 mph N/A   Clear
9:58 AM 24.3 °F 9.3 °F -9.4 °F 23% 30.45 in 10.0 mi NNE 21.9 mph 28.8 mph N/A   Scattered Clouds
10:58 AM 25.0 °F 11.3 °F -8.7 °F 23% 30.47 in 10.0 mi NNE 18.4 mph - N/A   Partly Cloudy
11:58 AM 26.1 °F 12.3 °F -8.0 °F 22% 30.45 in 10.0 mi NNE 19.6 mph - N/A   Mostly Cloudy
12:58 PM 26.8 °F 14.9 °F -7.2 °F 23% 30.44 in 10.0 mi NNE 15.0 mph 21.9 mph N/A   Mostly Cloudy
1:58 PM 27.7 °F 15.2 °F -8.5 °F 20% 30.40 in 10.0 mi NNE 17.3 mph - N/A   Mostly Cloudy
2:58 PM 28.6 °F 15.3 °F -9.8 °F 19% 30.37 in 10.0 mi NNE 20.7 mph 25.3 mph N/A   Partly Cloudy
3:58 PM 27.7 °F 14.5 °F -10.7 °F 18% 30.40 in 10.0 mi NNE 19.6 mph 27.6 mph N/A   Scattered Clouds
4:58 PM 25.2 °F 12.0 °F -9.6 °F 22% 30.39 in 10.0 mi North 17.3 mph - N/A   Mostly Cloudy
5:58 PM 22.6 °F 9.2 °F -11.7 °F 22% 30.40 in 10.0 mi NNE 16.1 mph - N/A   Mostly Cloudy
6:58 PM 21.6 °F 8.8 °F -11.7 °F 23% 30.40 in 10.0 mi NE 13.8 mph - N/A   Overcast
7:58 PM 20.3 °F 5.7 °F -11.9 °F 24% 30.43 in 10.0 mi NE 17.3 mph 27.6 mph N/A   Overcast
8:58 PM 19.8 °F 5.9 °F -10.3 °F 26% 30.43 in 10.0 mi NE 15.0 mph 23.0 mph N/A   Overcast
9:58 PM 18.7 °F 5.1 °F -10.1 °F 28% 30.45 in 10.0 mi NNE 13.8 mph - N/A   Mostly Cloudy
10:58 PM 17.2 °F 3.9 °F -7.8 °F 33% 30.46 in 10.0 mi NNE 12.7 mph - N/A   Partly Cloudy
11:58 PM 17.8 °F 3.4 °F -2.6 °F 41% 30.48 in 10.0 mi NNE 15.0 mph - N/A   Overcast